Location: Sternwarte ZA, Rosenfeld-Brittheim
(48.2889°N, 8.6789°E)
Time: 22:06:54
(UTC+01:00)

ISS - Pass Details

Date: 09 November 2019
Orbit: 412 x 421 km, 51.6° (Epoch: 15 November)

Event Time Altitude Azimuth Distance (km) Brightness Sun altitude
Exits shadow 04:13:52 12° 86° (E) 1,379 -0.3 -31.5°
Drops below altitude 10° 04:14:12 10° 87° (E) 1,506 -0.1 -31.4°
Sets 04:16:20 0° 93° (E) 2,368 1.2 -31.1°
